sat.trackr.live / text

‹ back to catalog

STARLINK-3572

NORAD 51879 · 2022-022AD

PAYLOAD ACTIVE UNKNOWN

§ Identity

Operator
Country
US
Launch date
2022-03-03
Launch site
AFETR
Launch vehicle
Mass (kg)
RCS (m²)

Purposes: comms

External: N2YO · Heavens-Above · Gunter

§ Orbital elements

Epoch: 2026-05-25T00:33:28.683360Z

Period
95.44 min
Inclination
53.2142°
Eccentricity
0.0001517
Mean motion
15.08845310 rev/d
Perigee alt
538.7 km
Apogee alt
540.8 km
Semi-major
6,917.9 km
B*
-2.1898e-5
RAAN
16.4451°
Arg perigee
88.8171°
Mean anomaly
271.2995°
Rev number
23,477

§ Raw data

STARLINK-35721 51879U 22022AD  26145.02324865 -.00000637  00000+0 -21898-4 0  99952 51879  53.2142  16.4451 0001517  88.8171 271.2995 15.08845310234770

JSON: /api/v1/satellites/51879 · /tle

For live sub-satellite position, see the globe view (requires WebGL).

§ Visibility from observer

Set your observer location to see the next 7 days of passes ≥ 10°. The values pass through the URL so the page stays shareable.

No JS? Fill the form by hand. The geolocation button needs JavaScript.